View from above orbital plane
|
View from above satellite
|
Ground track
|
The orbit data is extracted from the following two-line orbital elements,
1 00058U 60013A 21018.83046306 .00000088 00000-0 84151-5 0 9995
2 00058 28.3281 81.9637 0165086 52.3971 309.1439 13.46325285967668
Epoch (UTC): | 18 January 2021 19:55:52 |
Eccentricity: | 0.0165086 |
inclination: | 28.3281° |
perigee height: | 962 km |
apogee height: | 1209 km |
right ascension of ascending node: | 81.9637° |
argument of perigee: | 52.3971° |
revolutions per day: | 13.46325285 |
mean anomaly at epoch: | 309.1439° |
orbit number at epoch: | 96766 |
The dashed part of the orbit path shows where the satellite is in the earth's shadow,
|
|